{"data":{"norad_id":57089,"intl_designator":"2023-088AT","name":"STARLINK-6259","alt_names":[],"object_type":"PAYLOAD","status":"ACTIVE","operator":null,"country":"US","launch_date":"2023-06-22","launch_site_code":"AFWTR","launch_vehicle":null,"mission":null,"orbit_class":"UNKNOWN","rcs_meters":null,"size_class":null,"mass_kg":null,"dimensions":null,"purposes":["comms"],"wikipedia_slug":null,"has_3d_model":false,"image_url":null,"decayed_at":null,"tle_current":{"epoch":"2026-05-25T00:12:31.383648Z","epoch_age_seconds":77785,"freshness":"FRESH","line1":"1 57089U 23088AT  26145.00869657  .00004721  00000+0  18094-3 0  9997","line2":"2 57089  43.0028  24.9990 0001679 262.4039  97.6622 15.27585150162178","mean_motion":15.2758515,"eccentricity":0.0001679,"inclination_deg":43.0028,"raan_deg":24.999,"arg_perigee_deg":262.4039,"mean_anomaly_deg":97.6622,"bstar":0.00018094,"rev_number":16217,"period_min":94.266430908941,"perigee_km":481.88168457392,"apogee_km":484.18566568663,"semimajor_km":6861.1706751303,"source":"CELESTRAK","updated_at":"2026-05-25T13:38:18.217381Z"}}}